Location: Helstorf
(52.5868°N, 9.5862°E)
Time: 16:16:18
(UTC+00:00)

IRS-1C Rocket - Pass Details

Date: 15 May 2026
Orbit: 798 x 805 km, 98.7° (Epoch: 10 June)

Event Time Altitude Azimuth Distance (km) Brightness Sun altitude
Exits shadow 20:27:09 11° 152° (SSE) 2,301 5.8 -9.4°
Maximum altitude 20:32:10 70° 70° (ENE) 857 4.2 -9.9°
Drops below altitude 10° 20:37:26 10° 348° (NNW) 2,394 7.7 -10.4°
Sets 20:39:47 0° 346° (NNW) 3,328 8.7 -10.6°
